Date String (YYYY-MM-DD hh:mm:ss) UTC,Instrument flags,Ambient pressure (hPa),Sample flow (lpm),Bypass flow (lpm),Sample temperature (°C),Ambient temperature (°C),ASC tube jacket temperature (°C),LED temperature (°C),Box temperature (°C),Sample RH (%),Span deviation,Mass concentration (μg/m³),Mass concentration (μg/m³),Mass concentration (μg/m³)
DateTimeUTC,F1_M11,P_M11,Q1_M11,Q2_M11,T1_M11,T2_M11,T3_M11,T4_M11,T5_M11,U1_M11,ZSPAN_M11,X2_M11,X0_M11,X1_M11
2021-11-07 19:00:00,,0823.7,5.00,0.00,29.9,29.0,00.0,38.7,31.8,06.1,0000.0,0001.04,0002.38,0000.80
2021-11-07 19:01:00,,0823.7,5.01,0.00,29.9,28.4,00.0,38.8,31.7,05.9,0000.0,0001.06,0002.43,0000.80
2021-11-07 19:02:00,,0823.7,5.00,0.00,29.8,26.5,00.0,38.7,31.3,05.8,0000.0,0001.06,0002.46,0000.79
2021-11-07 19:03:00,,0823.7,5.00,0.00,29.7,25.9,00.0,38.7,31.2,05.9,0000.0,0000.99,0002.82,0000.78
2021-11-07 19:04:00,,0823.7,4.99,0.00,29.7,26.3,00.0,38.7,31.2,05.9,0000.0,0000.96,0003.36,0000.77
2021-11-07 19:05:00,,0823.6,5.00,0.00,29.6,26.7,00.0,38.6,31.2,05.9,0000.0,0000.94,0003.44,0000.77
2021-11-07 19:06:00,,0823.7,5.00,0.00,29.6,27.2,00.0,38.6,31.2,05.9,0000.0,0000.92,0003.40,0000.76
2021-11-07 19:07:00,,0823.6,5.00,0.00,29.6,27.6,00.0,38.6,31.2,05.9,0000.0,0000.91,0003.11,0000.75
2021-11-07 19:08:00,,0823.6,5.00,0.00,29.6,27.9,00.0,38.6,31.3,05.8,0000.0,0000.92,0003.00,0000.75
2021-11-07 19:09:00,,0823.6,5.01,0.00,29.6,28.1,00.0,38.6,31.3,06.0,0000.0,0000.92,0003.04,0000.75
2021-11-07 19:10:00,,0823.6,5.00,0.00,29.6,28.3,00.0,38.6,31.4,06.0,0000.0,0000.90,0003.01,0000.74
2021-11-07 19:11:00,,0823.6,5.00,0.00,29.7,28.5,00.0,38.6,31.5,06.0,0000.0,0000.91,0003.03,0000.73
2021-11-07 19:12:00,,0823.6,5.00,0.00,29.7,28.6,00.0,38.6,31.5,05.8,0000.0,0000.90,0002.99,0000.73
2021-11-07 19:13:00,,0823.6,5.01,0.00,29.8,28.8,00.0,38.6,31.6,05.9,0000.0,0000.90,0002.96,0000.75
2021-11-07 19:14:00,,0823.6,5.01,0.00,29.8,28.9,00.0,38.7,31.6,05.9,0000.0,0000.91,0002.31,0000.75
2021-11-07 19:15:00,,0823.6,5.00,0.00,29.8,29.0,00.0,38.7,31.7,05.9,0000.0,0000.94,0001.55,0000.75
2021-11-07 19:16:00,,0823.5,5.00,0.00,29.9,29.0,00.0,38.7,31.7,05.9,0000.0,0000.97,0001.39,0000.76
2021-11-07 19:17:00,,0823.5,4.98,0.00,29.9,28.3,00.0,38.7,31.6,05.9,0000.0,0001.00,0001.53,0000.77
2021-11-07 19:18:00,,0823.4,5.01,0.00,29.8,26.4,00.0,38.7,31.2,05.9,0000.0,0001.03,0001.81,0000.79
2021-11-07 19:19:00,,0823.4,5.00,0.00,29.7,25.9,00.0,38.7,31.1,06.0,0000.0,0001.07,0001.89,0000.80
2021-11-07 19:20:00,,0823.4,5.01,0.00,29.6,26.3,00.0,38.7,31.2,06.2,0000.0,0001.07,0001.89,0000.80
2021-11-07 19:21:00,,0823.4,5.00,0.00,29.6,26.7,00.0,38.6,31.1,06.0,0000.0,0001.11,0001.97,0000.81
2021-11-07 19:22:00,,0823.5,5.00,0.00,29.5,27.2,00.0,38.6,31.1,06.0,0000.0,0001.14,0002.26,0000.81
2021-11-07 19:23:00,,0823.5,5.00,0.00,29.6,27.6,00.0,38.6,31.2,06.0,0000.0,0001.15,0002.34,0000.81
2021-11-07 19:24:00,,0823.5,5.02,0.00,29.6,27.9,00.0,38.6,31.3,06.1,0000.0,0001.16,0002.37,0000.81
2021-11-07 19:25:00,,0823.5,5.00,0.00,29.6,28.2,00.0,38.6,31.4,06.1,0000.0,0001.16,0002.36,0000.81
2021-11-07 19:26:00,,0823.4,5.01,0.00,29.6,28.4,00.0,38.6,31.4,06.1,0000.0,0001.18,0002.38,0000.82
2021-11-07 19:27:00,,0823.4,5.00,0.00,29.7,28.6,00.0,38.6,31.5,06.2,0000.0,0001.16,0002.77,0000.81
2021-11-07 19:28:00,,0823.5,5.00,0.00,29.7,28.7,00.0,38.6,31.5,06.1,0000.0,0001.16,0003.03,0000.81
2021-11-07 19:29:00,,0823.6,4.99,0.00,29.8,28.8,00.0,38.6,31.6,06.1,0000.0,0001.12,0002.71,0000.80
2021-11-07 19:30:00,,0823.7,5.00,0.00,29.8,29.0,00.0,38.6,31.7,06.1,0000.0,0001.11,0002.69,0000.79
2021-11-07 19:31:00,,0823.6,5.01,0.00,29.9,29.0,00.0,38.7,31.7,06.0,0000.0,0001.11,0002.69,0000.79
2021-11-07 19:32:00,,0823.4,5.00,0.00,29.9,28.2,00.0,38.7,31.6,05.9,0000.0,0001.08,0002.63,0000.78
2021-11-07 19:33:00,,0823.4,4.99,0.00,29.8,26.8,00.0,38.7,31.4,06.0,0000.0,0001.03,0002.33,0000.79
2021-11-07 19:34:00,,0823.3,5.01,0.00,29.7,26.9,00.0,38.7,31.3,06.0,0000.0,0001.00,0002.20,0000.78
2021-11-07 19:35:00,,0823.4,5.01,0.00,29.7,27.2,00.0,38.7,31.3,05.9,0000.0,0000.99,0002.16,0000.78
2021-11-07 19:36:00,,0823.3,4.99,0.00,29.7,27.6,00.0,38.6,31.3,05.9,0000.0,0000.99,0002.16,0000.79
2021-11-07 19:37:00,,0823.4,5.00,0.00,29.7,27.9,00.0,38.6,31.4,05.9,0000.0,0000.99,0002.23,0000.79
2021-11-07 19:38:00,,0823.5,5.00,0.00,29.7,28.2,00.0,38.6,31.5,06.1,0000.0,0001.02,0001.90,0000.79
2021-11-07 19:39:00,,0823.5,5.00,0.00,29.7,28.5,00.0,38.6,31.5,05.8,0000.0,0001.00,0001.57,0000.80
2021-11-07 19:40:00,,0823.4,5.01,0.00,29.8,28.7,00.0,38.7,31.6,05.6,0000.0,0001.01,0001.66,0000.80
2021-11-07 19:41:00,,0823.4,5.00,0.00,29.8,28.2,00.0,38.7,31.5,05.6,0000.0,0001.01,0001.75,0000.81
2021-11-07 19:42:00,,0823.4,4.99,0.00,29.7,26.2,00.0,38.7,31.1,05.7,0000.0,0001.01,0001.74,0000.82
2021-11-07 19:43:00,,0823.4,5.00,0.00,29.6,25.7,00.0,38.6,31.0,05.7,0000.0,0001.02,0001.75,0000.83
2021-11-07 19:44:00,,0823.4,4.99,0.00,29.5,26.1,00.0,38.6,31.0,05.7,0000.0,0001.04,0001.79,0000.84
2021-11-07 19:45:00,,0823.3,5.00,0.00,29.5,26.6,00.0,38.5,31.1,05.9,0000.0,0001.08,0001.87,0000.85
2021-11-07 19:46:00,,0823.4,5.01,0.00,29.5,27.1,00.0,38.5,31.1,06.1,0000.0,0001.14,0002.01,0000.87
2021-11-07 19:47:00,,0823.3,5.00,0.00,29.5,27.5,00.0,38.5,31.2,06.0,0000.0,0001.20,0002.07,0000.88
2021-11-07 19:48:00,,0823.3,4.99,0.00,29.5,27.9,00.0,38.5,31.3,05.9,0000.0,0001.26,0002.30,0000.89
2021-11-07 19:49:00,,0823.3,5.00,0.00,29.6,28.2,00.0,38.5,31.3,05.9,0000.0,0001.25,0002.46,0000.89
2021-11-07 19:50:00,,0823.3,5.00,0.00,29.6,28.4,00.0,38.5,31.4,05.9,0000.0,0001.27,0004.04,0000.90
2021-11-07 19:51:00,,0823.4,4.99,0.00,29.6,28.6,00.0,38.5,31.5,06.0,0000.0,0001.29,0004.32,0000.90
2021-11-07 19:52:00,,0823.4,4.99,0.00,29.7,28.8,00.0,38.5,31.6,06.1,0000.0,0001.28,0004.37,0000.90
2021-11-07 19:53:00,,0823.3,5.00,0.00,29.8,28.9,00.0,38.6,31.6,06.0,0000.0,0001.30,0004.70,0000.89
2021-11-07 19:54:00,,0823.4,5.00,0.00,29.8,29.0,00.0,38.6,31.7,05.8,0000.0,0001.31,0005.86,0000.89
2021-11-07 19:55:00,,0823.4,4.99,0.00,29.9,28.9,00.0,38.6,31.7,06.1,0000.0,0001.33,0007.19,0000.89
2021-11-07 19:56:00,,0823.3,5.01,0.00,29.8,27.3,00.0,38.6,31.4,06.1,0000.0,0001.31,0007.95,0000.89
2021-11-07 19:57:00,,0823.2,5.00,0.00,29.7,26.0,00.0,38.6,31.1,06.1,0000.0,0001.28,0007.99,0000.89
2021-11-07 19:58:00,,0823.3,5.00,0.00,29.6,26.2,00.0,38.6,31.1,06.3,0000.0,0001.27,0008.23,0000.90
2021-11-07 19:59:00,,0823.2,5.01,0.00,29.5,26.6,00.0,38.5,31.1,06.3,0000.0,0001.23,0008.80,0000.90
